AirNav   Get Bose SoundSport FEEE
 
 1029 users online  

66CA Rancho San Simeon Airport
Cambria, California, USA

GOING TO CAMBRIA?


FAA INFORMATION EFFECTIVE 15 AUGUST 2019

Location

FAA Identifier: 66CA
Lat/Long: 35-36-27.8940N 121-06-36.6960W
35-36.464900N 121-06.611600W
35.6077483,-121.1101933
(estimated)
Elevation: 320 ft. / 98 m (estimated)
Variation: 15E (1985)
From city: 3 miles NW of CAMBRIA, CA
Time zone: UTC -7 (UTC -8 during Standard Time)
Zip code: 93428

Airport Operations

Airport use: Private use. Permission required prior to landing
Activation date: 09/1982
Control tower: no
ARTCC: OAKLAND CENTER
FSS: HAWTHORNE FLIGHT SERVICE STATION
Attendance: UNATNDD
Wind indicator: yes
Segmented circle: no

Nearby radio navigation aids

VOR radial/distance  VOR name  Freq  Var
PRBr245/23.9PASO ROBLES VORTAC114.3016E
MQOr305/27.4MORRO BAY VORTAC112.4016E
ROMr198/(38.6)PRIEST VOR110.0016E

 
NDB name  Hdg/Dist  Freq  Var  ID
HUNTER LIGGETT155/21.620915EHGT .... --. -

Airport Services

Airframe service: NONE
Powerplant service: NONE

Runway Information

Runway 1/19

Dimensions: 1800 x 65 ft. / 549 x 20 m
Surface: asphalt
RUNWAY 1  RUNWAY 19
Traffic pattern: leftleft

Airport Ownership and Management from official FAA records

Ownership: Privately-owned
Owner: CLYDE WARREN
PO BOX 528
MURPHY, OR 97533
Manager: CLYDE WARREN
PO BOX 528
MURPHY, OR 97533

Airport Operational Statistics

Aircraft based on the field: 2
Single engine airplanes: 1
Helicopters: 1
    

Additional Remarks

FOR CD CTC OAKLAND ARTCC AT 510-745-3380.

Instrument Procedures

There are no published instrument procedures at 66CA.

Some nearby airports with instrument procedures:

KPRB - Paso Robles Municipal Airport (24 nm E)
KHGT - Tusi Army Heliport (Hunter Liggett) (24 nm N)
KSBP - San Luis County Regional Airport (32 nm SE)
KSMX - Santa Maria Public Airport/Capt G Allan Hancock Field (53 nm SE)
KVBG - Vandenberg Air Force Base (58 nm SE)
 
Loc | Ops | Rwys | IFR | FBO | Links
Com | Nav | Svcs | Stats | Notes
Area around 66CA (Rancho San Simeon Airport)
 
Road maps at: MapQuest Bing Google
 
Aerial photo
WARNING: Photo may not be current or correct
Aerial photo of 66CA (Rancho San Simeon Airport)
Photo by Andrew Brown
Photo taken 19-Jun-2010

Do you have a better or more recent aerial photo of Rancho San Simeon Airport that you would like to share? If so, please send us your photo.

 
Sectional chart

 
Airport distance calculator
Flying to Rancho San Simeon Airport? Find the distance to fly.

From to 66CA

Sunrise and sunset
Times for 17-Aug-2019
 Local
(UTC-7)
 Zulu
(UTC)
Morning civil twilight05:5912:59
Sunrise06:2613:26
Sunset19:5102:51
Evening civil twilight20:1803:18

Current date and time
Zulu (UTC)  17-Aug-2019 14:18:28
Local (UTC-7)  17-Aug-2019 07:18:28
 
METAR
KPRB 
24nm E 
171353Z AUTO 20008KT 10SM CLR 13/12 A2989 RMK AO2 SLP114 T01330122
KSBP 
32nm SE 
171356Z 08005KT 10SM OVC012 14/13 A2991 RMK AO2 SLP128 T01440133
KL52 
39nm SE 
171355Z AUTO 00000KT 7SM OVC011 15/14 A2992 RMK A01
TAF
KPRB 
24nm E 
171138Z 1712/1812 17007KT P6SM SKC FM171300 18005KT 6SM BR BKN008 FM171800 20015KT P6SM SCT012 FM172100 20020G30KT P6SM SKC FM180400 20006KT P6SM SKC FM181100 VRB03KT P6SM BKN008
NOTAMs
Click for the latest NOTAMs
NOTAMs are issued by the DoD/FAA and will open in a separate window not controlled by AirNav.

 

 
 

Would you like to see your business listed on this page?

 If your business provides an interesting product or service to pilots, flight crews, aircraft, or users of the Rancho San Simeon Airport, you should consider listing it here.  To start the listing process, click on the button below
 
Add a business
 

Other Pages about Rancho San Simeon Airport

Update a link
 
Copyright © AirNav, LLC. All rights reserved. Privacy Policy  Contact